• In Österreich
  • Länderverzeichnis
  • Für 7 Tage
  • Wassertemperatur
  • Satellitenkarten
  • Wetterkarte
  • News
  • Widgets
  • user-avatar
    Anmelden

    Stündliche Wetter Tibissa

    Heute, 23 Januar, Dienstag

    Zeit Temperatur Niederschläge Wind Luftdruck Luftfeuchtigkeit
    00:00 +8°C° 0 mm 4 m/S 688 mmHg 71%
    01:00 +9°C° 0 mm 3 m/S 688 mmHg 70%
    02:00 +9°C° 0 mm 3 m/S 688 mmHg 69%
    03:00 +9°C° 0 mm 3 m/S 688 mmHg 69%
    04:00 +8°C° 0 mm 3 m/S 688 mmHg 68%
    05:00 +7°C° 0 mm 4 m/S 688 mmHg 69%
    06:00 +7°C° 0 mm 4 m/S 688 mmHg 69%
    07:00 +8°C° 0 mm 3 m/S 688 mmHg 69%
    08:00 +8°C° 0 mm 5 m/S 688 mmHg 63%
    09:00 +10°C° 0 mm 6 m/S 689 mmHg 56%
    10:00 +11°C° 0 mm 7 m/S 689 mmHg 50%
    11:00 +12°C° 0 mm 7 m/S 689 mmHg 47%
    12:00 +13°C° 0 mm 8 m/S 690 mmHg 45%
    13:00 +15°C° 0 mm 9 m/S 690 mmHg 43%
    14:00 +15°C° 0 mm 9 m/S 690 mmHg 45%
    15:00 +13°C° 0 mm 9 m/S 690 mmHg 47%
    16:00 +13°C° 0 mm 9 m/S 690 mmHg 49%
    17:00 +12°C° 0 mm 8 m/S 690 mmHg 56%
    18:00 +10°C° 0 mm 7 m/S 690 mmHg 64%
    19:00 +9°C° 0 mm 6 m/S 690 mmHg 71%
    20:00 +8°C° 0 mm 6 m/S 690 mmHg 73%
    21:00 +7°C° 0 mm 6 m/S 690 mmHg 75%
    22:00 +5°C° 0 mm 6 m/S 690 mmHg 77%
    23:00 +6°C° 0 mm 5 m/S 691 mmHg 78%

    Morgen, 24 Januar, Mittwoch

    Zeit Temperatur Niederschläge Wind Luftdruck Luftfeuchtigkeit
    00:00 +5°C° 0 mm 5 m/S 691 mmHg 79%
    01:00 +5°C° 0 mm 5 m/S 691 mmHg 80%
    02:00 +4°C° 0 mm 4 m/S 691 mmHg 82%
    03:00 +4°C° 0 mm 4 m/S 691 mmHg 84%
    04:00 +4°C° 0 mm 3 m/S 690 mmHg 85%
    05:00 +3°C° 0 mm 3 m/S 691 mmHg 86%
    06:00 +3°C° 0 mm 3 m/S 691 mmHg 87%
    07:00 +4°C° 0 mm 2 m/S 691 mmHg 87%
    08:00 +5°C° 0 mm 2 m/S 691 mmHg 80%
    09:00 +6°C° 0 mm 2 m/S 692 mmHg 73%
    10:00 +8°C° 0 mm 2 m/S 692 mmHg 66%
    11:00 +10°C° 0 mm 1 m/S 692 mmHg 60%
    12:00 +11°C° 0 mm 1 m/S 692 mmHg 53%
    13:00 +12°C° 0 mm 1 m/S 692 mmHg 47%
    14:00 +13°C° 0 mm 1 m/S 692 mmHg 45%
    15:00 +13°C° 0 mm 1 m/S 692 mmHg 43%
    16:00 +14°C° 0 mm 1 m/S 692 mmHg 40%
    17:00 +13°C° 0 mm 1 m/S 692 mmHg 46%
    18:00 +11°C° 0 mm 1 m/S 692 mmHg 52%
    19:00 +9°C° 0 mm 2 m/S 692 mmHg 58%
    20:00 +9°C° 0 mm 2 m/S 692 mmHg 61%
    21:00 +8°C° 0 mm 2 m/S 692 mmHg 64%
    22:00 +8°C° 0 mm 2 m/S 692 mmHg 67%
    23:00 +7°C° 0 mm 2 m/S 692 mmHg 69%

    übermorgen, 25 Januar, Donnerstag

    Zeit Temperatur Niederschläge Wind Luftdruck Luftfeuchtigkeit
    00:00 +7°C° 0 mm 2 m/S 692 mmHg 72%
    01:00 +6°C° 0 mm 2 m/S 691 mmHg 74%
    02:00 +6°C° 0 mm 2 m/S 691 mmHg 76%
    03:00 +6°C° 0 mm 2 m/S 691 mmHg 77%
    04:00 +5°C° 0 mm 2 m/S 690 mmHg 79%
    05:00 +5°C° 0 mm 2 m/S 690 mmHg 79%
    06:00 +5°C° 0 mm 2 m/S 690 mmHg 80%
    07:00 +5°C° 0 mm 2 m/S 690 mmHg 80%
    08:00 +5°C° 0 mm 3 m/S 691 mmHg 74%
    09:00 +8°C° 0 mm 3 m/S 691 mmHg 67%
    10:00 +8°C° 0 mm 4 m/S 692 mmHg 61%
    11:00 +10°C° 0 mm 4 m/S 691 mmHg 56%
    12:00 +12°C° 0 mm 5 m/S 691 mmHg 51%
    13:00 +13°C° 0 mm 5 m/S 691 mmHg 46%
    14:00 +13°C° 0 mm 5 m/S 690 mmHg 47%
    15:00 +13°C° 0 mm 5 m/S 690 mmHg 47%
    16:00 +13°C° 0 mm 5 m/S 689 mmHg 47%
    17:00 +12°C° 0 mm 5 m/S 689 mmHg 53%
    18:00 +10°C° 0 mm 4 m/S 689 mmHg 59%
    19:00 +9°C° 0 mm 3 m/S 688 mmHg 65%
    20:00 +8°C° 0 mm 3 m/S 688 mmHg 68%
    21:00 +8°C° 0 mm 3 m/S 688 mmHg 71%
    22:00 +7°C° 0 mm 3 m/S 688 mmHg 74%
    23:00 +7°C° 0 mm 3 m/S 688 mmHg 76%

    26 Januar, Freitag

    Zeit Temperatur Niederschläge Wind Luftdruck Luftfeuchtigkeit
    00:00 +5°C° 0 mm 3 m/S 688 mmHg 78%
    01:00 +5°C° 0 mm 3 m/S 687 mmHg 79%
    02:00 +5°C° 0 mm 3 m/S 687 mmHg 80%
    03:00 +4°C° 0 mm 3 m/S 687 mmHg 81%
    04:00 +4°C° 0 mm 3 m/S 686 mmHg 83%
    05:00 +4°C° 0 mm 3 m/S 686 mmHg 83%
    06:00 +4°C° 0 mm 3 m/S 686 mmHg 84%
    07:00 +4°C° 0 mm 3 m/S 686 mmHg 85%
    08:00 +5°C° 0 mm 4 m/S 686 mmHg 78%
    09:00 +7°C° 0 mm 4 m/S 686 mmHg 71%
    10:00 +8°C° 0 mm 4 m/S 687 mmHg 64%
    11:00 +10°C° 0 mm 5 m/S 686 mmHg 57%
    12:00 +12°C° 0 mm 5 m/S 686 mmHg 50%
    13:00 +14°C° 0 mm 6 m/S 686 mmHg 43%
    14:00 +14°C° 0 mm 6 m/S 686 mmHg 43%
    15:00 +14°C° 0 mm 5 m/S 686 mmHg 43%
    16:00 +14°C° 0 mm 5 m/S 685 mmHg 42%
    17:00 +12°C° 0 mm 5 m/S 685 mmHg 49%
    18:00 +11°C° 0 mm 4 m/S 685 mmHg 55%
    19:00 +10°C° 0 mm 3 m/S 685 mmHg 61%
    20:00 +9°C° 0 mm 3 m/S 685 mmHg 66%
    21:00 +8°C° 0 mm 2 m/S 685 mmHg 71%
    22:00 +7°C° 0 mm 2 m/S 686 mmHg 76%
    23:00 +7°C° 0 mm 2 m/S 685 mmHg 79%

    27 Januar, Samstag

    Zeit Temperatur Niederschläge Wind Luftdruck Luftfeuchtigkeit
    00:00 +8°C° 0 mm 1 m/S 685 mmHg 82%
    01:00 +7°C° 0 mm 1 m/S 685 mmHg 85%
    02:00 +7°C° 0,1 mm 1 m/S 684 mmHg 86%
    03:00 +7°C° 0,1 mm 1 m/S 684 mmHg 87%
    04:00 +6°C° 0,1 mm 1 m/S 683 mmHg 88%
    05:00 +6°C° 0,2 mm 1 m/S 683 mmHg 88%
    06:00 +5°C° 0,2 mm 2 m/S 683 mmHg 88%
    07:00 +5°C° 0,2 mm 2 m/S 683 mmHg 89%
    08:00 +5°C° 0 mm 3 m/S 683 mmHg 84%
    09:00 +6°C° 0 mm 5 m/S 684 mmHg 79%
    10:00 +7°C° 0 mm 6 m/S 684 mmHg 74%
    11:00 +7°C° 0,4 mm 6 m/S 683 mmHg 72%
    12:00 +6°C° 0,4 mm 7 m/S 683 mmHg 70%
    13:00 +6°C° 0,4 mm 8 m/S 683 mmHg 68%
    14:00 +6°C° 0,6 mm 7 m/S 682 mmHg 68%
    15:00 +5°C° 0,6 mm 6 m/S 682 mmHg 68%
    16:00 +6°C° 0,6 mm 5 m/S 681 mmHg 68%
    17:00 +5°C° 0,1 mm 5 m/S 681 mmHg 69%
    18:00 +4°C° 0,1 mm 4 m/S 682 mmHg 69%
    19:00 +4°C° 0,1 mm 3 m/S 682 mmHg 69%
    20:00 +3°C° 0,3 mm 3 m/S 682 mmHg 72%
    21:00 +3°C° 0,3 mm 3 m/S 682 mmHg 74%
    22:00 +3°C° 0,3 mm 3 m/S 682 mmHg 77%
    23:00 +2°C° 0,4 mm 3 m/S 682 mmHg 78%

    28 Januar, Sonntag

    Zeit Temperatur Niederschläge Wind Luftdruck Luftfeuchtigkeit
    00:00 +2°C° 0,4 mm 3 m/S 682 mmHg 79%
    01:00 +2°C° 0,4 mm 3 m/S 682 mmHg 80%
    02:00 +2°C° 0,4 mm 3 m/S 682 mmHg 80%
    03:00 +2°C° 0,4 mm 3 m/S 682 mmHg 80%
    04:00 +1°C° 0,4 mm 4 m/S 682 mmHg 80%
    05:00 +2°C° 0,1 mm 3 m/S 683 mmHg 81%
    06:00 +1°C° 0,1 mm 3 m/S 683 mmHg 82%
    07:00 +1°C° 0,1 mm 3 m/S 683 mmHg 82%
    08:00 +2°C° 0 mm 3 m/S 684 mmHg 78%
    09:00 +3°C° 0 mm 3 m/S 685 mmHg 74%
    10:00 +4°C° 0 mm 3 m/S 686 mmHg 70%
    11:00 +5°C° 0 mm 3 m/S 686 mmHg 66%
    12:00 +6°C° 0 mm 4 m/S 686 mmHg 61%
    13:00 +7°C° 0 mm 5 m/S 686 mmHg 57%
    14:00 +7°C° 0 mm 5 m/S 686 mmHg 55%
    15:00 +7°C° 0 mm 5 m/S 686 mmHg 54%
    16:00 +7°C° 0 mm 5 m/S 686 mmHg 53%
    17:00 +6°C° 0 mm 4 m/S 687 mmHg 56%
    18:00 +5°C° 0 mm 3 m/S 687 mmHg 58%
    19:00 +5°C° 0 mm 3 m/S 687 mmHg 61%
    20:00 +4°C° 0 mm 3 m/S 688 mmHg 64%
    21:00 +4°C° 0 mm 3 m/S 688 mmHg 66%
    22:00 +3°C° 0 mm 3 m/S 689 mmHg 69%
    23:00 +3°C° 0 mm 3 m/S 689 mmHg 72%
    Mehr zeigen